GPS BIIF-6

Last updated on Sun Sep 20 2026 00:02:47 GMT+0000 (Coordinated Universal Time)

1 39741U 14026A 26262.19689778 -.00000083 00000+0 00000+0 0 9990 2 39741 56.4453 327.8543 0039493 324.1114 35.6848 2.00554388 90423
UTC large
Height (km)
Speed (km/s)
/
Latitude / Longitude
Inclination (degrees)
Orbital Period (minutes)
Azimuth
Elevation
Range (km)
Doppler Factor

Next 0 passes for location: London (51.5072 / 0.1276)

No passes found over London.
GPS BIIF-6